Date String (YYYY-MM-DD hh:mm:ss) UTC,Instrument flags,Ambient pressure (hPa),Sample flow (lpm),Bypass flow (lpm),Sample temperature (°C),Ambient temperature (°C),ASC tube jacket temperature (°C),LED temperature (°C),Box temperature (°C),Sample RH (%),Span deviation,Mass concentration (μg/m³),Mass concentration (μg/m³),Mass concentration (μg/m³)
DateTimeUTC,F1_M11,P_M11,Q1_M11,Q2_M11,T1_M11,T2_M11,T3_M11,T4_M11,T5_M11,U1_M11,ZSPAN_M11,X2_M11,X0_M11,X1_M11
2021-12-03 10:00:00,,0826.5,5.01,0.00,29.5,28.5,00.0,38.5,31.1,08.3,0000.0,0003.04,0011.64,0001.95
2021-12-03 10:01:00,,0826.5,4.99,0.00,29.4,28.5,00.0,38.5,31.1,08.3,0000.0,0003.06,0011.63,0001.93
2021-12-03 10:02:00,,0826.5,5.01,0.00,29.4,28.5,00.0,38.5,31.1,08.3,0000.0,0002.97,0010.79,0001.88
2021-12-03 10:03:00,,0826.5,5.00,0.00,29.4,28.5,00.0,38.5,31.0,08.3,0000.0,0002.92,0011.30,0001.80
2021-12-03 10:04:00,,0826.5,4.98,0.00,29.4,28.4,00.0,38.5,31.0,08.3,0000.0,0002.86,0011.25,0001.72
2021-12-03 10:05:00,,0826.5,5.01,0.00,29.4,28.4,00.0,38.5,31.0,08.3,0000.0,0002.81,0011.27,0001.65
2021-12-03 10:06:00,,0826.5,4.99,0.00,29.4,28.4,00.0,38.5,31.0,08.4,0000.0,0002.75,0010.78,0001.63
2021-12-03 10:07:00,,0826.5,5.01,0.00,29.4,28.4,00.0,38.5,31.0,08.3,0000.0,0002.65,0010.06,0001.57
2021-12-03 10:08:00,,0826.5,4.99,0.00,29.4,28.4,00.0,38.5,31.0,08.4,0000.0,0002.52,0009.99,0001.50
2021-12-03 10:09:00,,0826.5,5.01,0.00,29.4,28.4,00.0,38.4,31.0,08.3,0000.0,0002.44,0009.11,0001.46
2021-12-03 10:10:00,,0826.5,5.00,0.00,29.4,28.4,00.0,38.4,31.0,08.3,0000.0,0002.27,0008.36,0001.38
2021-12-03 10:11:00,,0826.5,4.98,0.00,29.4,28.4,00.0,38.4,31.0,08.2,0000.0,0002.09,0007.77,0001.28
2021-12-03 10:12:00,,0826.5,5.02,0.00,29.3,28.4,00.0,38.4,31.0,08.3,0000.0,0001.96,0007.42,0001.20
2021-12-03 10:13:00,,0826.5,4.99,0.00,29.3,28.4,00.0,38.4,31.0,08.3,0000.0,0001.92,0007.04,0001.14
2021-12-03 10:14:00,,0826.5,5.01,0.00,29.3,28.3,00.0,38.4,30.9,08.3,0000.0,0001.89,0006.03,0001.08
2021-12-03 10:15:00,,0826.5,4.99,0.00,29.3,28.3,00.0,38.4,30.9,08.2,0000.0,0001.78,0005.58,0001.01
2021-12-03 10:16:00,,0826.5,5.01,0.00,29.3,28.3,00.0,38.4,30.9,08.2,0000.0,0001.68,0005.00,0000.93
2021-12-03 10:17:00,,0826.5,5.00,0.00,29.3,28.3,00.0,38.4,30.9,08.1,0000.0,0001.57,0005.36,0000.84
2021-12-03 10:18:00,,0826.5,5.00,0.00,29.3,28.3,00.0,38.4,30.8,08.1,0000.0,0001.44,0005.17,0000.77
2021-12-03 10:19:00,,0826.5,5.00,0.00,29.3,28.2,00.0,38.4,30.8,08.1,0000.0,0001.41,0005.39,0000.71
2021-12-03 10:20:00,,0826.5,5.01,0.00,29.2,28.2,00.0,38.3,30.8,08.1,0000.0,0001.34,0005.60,0000.65
2021-12-03 10:21:00,,0826.5,4.98,0.00,29.2,28.2,00.0,38.3,30.8,08.1,0000.0,0001.27,0005.39,0000.61
2021-12-03 10:22:00,,0826.5,5.02,0.00,29.2,28.1,00.0,38.3,30.8,08.1,0000.0,0001.22,0005.31,0000.58
2021-12-03 10:23:00,,0826.5,5.01,0.00,29.2,28.2,00.0,38.3,30.8,08.2,0000.0,0001.13,0005.16,0000.54
2021-12-03 10:24:00,,0826.5,5.00,0.00,29.2,28.1,00.0,38.3,30.8,08.2,0000.0,0001.05,0005.52,0000.51
2021-12-03 10:25:00,,0826.6,5.00,0.00,29.2,28.1,00.0,38.3,30.8,08.2,0000.0,0000.95,0005.73,0000.48
2021-12-03 10:26:00,,0826.6,5.00,0.00,29.2,28.1,00.0,38.3,30.7,08.2,0000.0,0000.92,0005.66,0000.49
2021-12-03 10:27:00,,0826.6,5.00,0.00,29.2,28.1,00.0,38.3,30.8,08.2,0000.0,0000.87,0004.71,0000.50
2021-12-03 10:28:00,,0826.6,5.00,0.00,29.2,28.1,00.0,38.3,30.8,08.2,0000.0,0000.91,0003.97,0000.53
2021-12-03 10:29:00,,0826.6,5.02,0.00,29.1,28.1,00.0,38.3,30.7,08.3,0000.0,0000.97,0004.00,0000.56
2021-12-03 10:30:00,,0826.6,4.99,0.00,29.1,28.0,00.0,38.3,30.7,08.3,0000.0,0000.99,0003.89,0000.60
2021-12-03 10:31:00,,0826.6,5.01,0.00,29.1,28.0,00.0,38.3,30.7,08.4,0000.0,0001.16,0005.30,0000.67
2021-12-03 10:32:00,,0826.6,4.98,0.00,29.1,28.0,00.0,38.2,30.7,08.4,0000.0,0001.29,0006.74,0000.73
2021-12-03 10:33:00,,0826.6,5.01,0.00,29.1,28.0,00.0,38.2,30.7,08.4,0000.0,0001.44,0007.39,0000.77
2021-12-03 10:34:00,,0826.6,5.00,0.00,29.1,28.0,00.0,38.2,30.7,08.4,0000.0,0001.55,0007.48,0000.82
2021-12-03 10:35:00,,0826.5,5.00,0.00,29.1,28.0,00.0,38.2,30.7,08.5,0000.0,0001.60,0007.10,0000.87
2021-12-03 10:36:00,,0826.6,5.00,0.00,29.1,28.0,00.0,38.2,30.7,08.5,0000.0,0001.66,0008.25,0000.91
2021-12-03 10:37:00,,0826.6,4.99,0.00,29.1,28.0,00.0,38.2,30.7,08.5,0000.0,0001.74,0009.59,0000.94
2021-12-03 10:38:00,,0826.5,5.00,0.00,29.1,28.0,00.0,38.2,30.7,08.5,0000.0,0001.81,0009.69,0000.98
2021-12-03 10:39:00,,0826.5,5.00,0.00,29.1,28.0,00.0,38.2,30.7,08.5,0000.0,0001.87,0009.93,0001.01
2021-12-03 10:40:00,,0826.5,5.00,0.00,29.1,28.0,00.0,38.2,30.6,08.6,0000.0,0001.92,0009.99,0001.03
2021-12-03 10:41:00,,0826.5,5.00,0.00,29.0,28.0,00.0,38.2,30.6,08.6,0000.0,0002.02,0010.23,0001.05
2021-12-03 10:42:00,,0826.5,5.00,0.00,29.0,28.0,00.0,38.2,30.6,08.6,0000.0,0002.00,0010.00,0001.04
2021-12-03 10:43:00,,0826.5,4.99,0.00,29.0,28.0,00.0,38.2,30.6,08.6,0000.0,0001.98,0009.36,0001.05
2021-12-03 10:44:00,,0826.5,5.02,0.00,29.0,28.0,00.0,38.1,30.6,08.6,0000.0,0001.91,0009.44,0001.05
2021-12-03 10:45:00,,0826.6,4.98,0.00,29.0,28.0,00.0,38.1,30.6,08.6,0000.0,0001.90,0009.62,0001.04
2021-12-03 10:46:00,,0826.6,5.01,0.00,29.0,27.9,00.0,38.1,30.6,08.6,0000.0,0001.94,0010.02,0001.02
2021-12-03 10:47:00,,0826.6,4.98,0.00,29.0,27.9,00.0,38.1,30.6,08.6,0000.0,0001.93,0008.82,0001.02
2021-12-03 10:48:00,,0826.6,5.00,0.00,29.0,27.9,00.0,38.1,30.6,08.6,0000.0,0001.92,0007.72,0001.01
2021-12-03 10:49:00,,0826.6,5.00,0.00,29.0,27.9,00.0,38.1,30.6,08.6,0000.0,0001.93,0007.73,0000.99
2021-12-03 10:50:00,,0826.7,4.99,0.00,29.0,27.9,00.0,38.1,30.6,08.6,0000.0,0001.91,0007.53,0000.97
2021-12-03 10:51:00,,0826.7,5.00,0.00,29.0,27.9,00.0,38.1,30.6,08.6,0000.0,0001.90,0007.49,0000.95
2021-12-03 10:52:00,,0826.7,5.00,0.00,29.0,27.9,00.0,38.1,30.5,08.5,0000.0,0001.79,0006.96,0000.93
2021-12-03 10:53:00,,0826.7,4.98,0.00,29.0,27.9,00.0,38.1,30.5,08.5,0000.0,0001.73,0006.32,0000.90
2021-12-03 10:54:00,,0826.7,5.00,0.00,28.9,27.8,00.0,38.1,30.6,08.5,0000.0,0001.73,0007.38,0000.88
2021-12-03 10:55:00,,0826.7,5.00,0.00,28.9,27.8,00.0,38.0,30.5,08.5,0000.0,0001.74,0006.83,0000.86
2021-12-03 10:56:00,,0826.7,5.00,0.00,28.9,27.8,00.0,38.0,30.5,08.5,0000.0,0001.74,0007.05,0000.84
2021-12-03 10:57:00,,0826.7,4.99,0.00,28.9,27.8,00.0,38.0,30.5,08.5,0000.0,0001.68,0006.56,0000.83
2021-12-03 10:58:00,,0826.7,5.00,0.00,28.9,27.8,00.0,38.0,30.5,08.5,0000.0,0001.66,0006.36,0000.80
2021-12-03 10:59:00,,0826.7,4.99,0.00,28.9,27.8,00.0,38.0,30.5,08.4,0000.0,0001.61,0006.10,0000.78
